Latest Weather Observations for Bundaberg

IDQ60801

Issued at 3:32 pm EST Monday 22 December 2014 (issued every 30 minutes, with the page automatically refreshed every 10 minutes)

About weather observations | Map of weather stations | Latest weather observations for QLD | Other Formats
Station Details ID: 039128 Name: BUNDABERG AERO Lat: -24.91 Lon: 152.32 Height: 30.82 m
Data from the previous 72 hours. | See also: Recent months at Bundaberg
Date/Time
EST
Temp
°C
App
Temp
°C
Dew
Point
Rel
Hum
%
Delta-T
°C
Wind Press
QNH
hPa
Press
MSL
hPa
Rain
since 9 am
mm
Dir
 
Spd
km/h
Gust
km/h
Spd
kts
Gust
kts
22/03:30pm 28.3 24.4 15.6 46 7.8 E 30 39 16 21 1013.6 1013.4 0.0
22/03:00pm 28.4 24.4 16.3 47 7.5 E 32 41 17 22 1013.9 1013.7 0.0
22/02:30pm 28.6 25.4 16.2 47 7.7 ESE 28 39 15 21 1014.2 1014.0 0.0
22/02:00pm 28.6 25.4 16.2 47 7.7 E 28 39 15 21 1014.6 1014.4 0.0
22/01:30pm 28.5 24.7 15.8 46 7.8 ESE 30 43 16 23 1014.7 1014.5 0.0
22/01:00pm 28.8 25.9 16.0 45 7.9 ESE 26 43 14 23 1014.9 1014.7 0.0
22/12:30pm 29.0 25.9 16.5 46 7.8 E 28 37 15 20 1015.4 1015.2 0.0
22/12:00pm 28.3 24.6 14.9 44 8.1 E 28 37 15 20 1015.7 1015.5 0.0
22/11:30am 28.7 25.1 15.2 43 8.2 E 28 39 15 21 1015.9 1015.7 0.0
22/11:00am 27.9 24.9 14.9 45 7.9 ESE 24 35 13 19 1016.3 1016.1 0.0
22/10:30am 28.5 25.6 16.1 47 7.7 ESE 26 33 14 18 1016.6 1016.4 0.0
22/10:00am 27.5 25.4 17.1 53 6.5 ESE 24 33 13 18 1016.8 1016.6 0.0
22/09:30am 26.1 23.8 15.8 53 6.3 SE 22 32 12 17 1016.8 1016.6 0.0
22/09:00am 26.1 23.7 16.4 55 6.0 ESE 24 32 13 17 1016.6 1016.4 0.0
22/08:30am 24.9 23.1 16.9 61 4.9 SE 22 28 12 15 1016.7 1016.5 0.0
22/08:00am 25.8 25.4 18.0 62 4.9 SSE 17 28 9 15 1016.5 1016.3 0.0
22/07:30am 24.5 23.9 17.5 65 4.4 SE 17 26 9 14 1016.4 1016.2 0.0
22/07:00am 23.7 24.1 18.1 71 3.5 SSE 13 17 7 9 1016.3 1016.1 0.0
22/06:00am 20.0 21.0 17.8 87 1.4 S 9 13 5 7 1015.6 1015.4 0.0
22/05:30am 19.7 20.3 17.8 89 1.2 SSW 11 15 6 8 1015.7 1015.5 0.0
22/05:00am 19.7 20.0 17.8 89 1.2 S 13 17 7 9 1015.4 1015.2 0.0
22/04:30am 19.7 20.0 17.8 89 1.2 S 13 17 7 9 1015.0 1014.8 0.0
22/04:00am 19.8 20.1 17.9 89 1.2 S 13 17 7 9 1014.7 1014.5 0.0
22/03:30am 20.0 20.3 17.8 87 1.4 S 13 19 7 10 1014.6 1014.4 0.0
22/03:00am 20.6 21.4 18.2 86 1.5 S 11 15 6 8 1014.6 1014.4 0.0
22/02:30am 20.6 21.8 18.2 86 1.5 SSW 9 11 5 6 1014.7 1014.5 0.0
22/02:00am 21.1 22.2 18.1 83 1.9 S 9 11 5 6 1014.7 1014.5 0.0
22/01:30am 21.4 22.6 18.2 82 2.0 S 9 13 5 7 1015.2 1015.0 0.0
22/01:00am 21.5 22.8 18.5 83 1.9 S 9 13 5 7 1015.6 1015.4 0.0
22/12:30am 21.3 22.5 18.3 83 1.9 S 9 11 5 6 1016.1 1015.9 0.0
22/12:00am 21.2 22.4 18.2 83 1.9 S 9 15 5 8 1016.5 1016.3 0.0
 
Date/Time
EST
Temp
°C
App
Temp
°C
Dew
Point
Rel
Hum
%
Delta-T
°C
Wind Press
QNH
hPa
Press
MSL
hPa
Rain
since 9 am
mm
Dir
 
Spd
km/h
Gust
km/h
Spd
kts
Gust
kts
21/11:30pm 21.4 22.3 18.4 83 1.9 S 11 15 6 8 1016.8 1016.6 0.0
21/11:00pm 22.1 23.9 18.7 81 2.1 SSE 7 9 4 5 1016.9 1016.7 0.0
21/10:30pm 22.1 23.9 18.3 79 2.4 SSE 6 7 3 4 1017.5 1017.3 0.0
21/10:00pm 22.9 24.1 18.2 75 2.9 E 9 13 5 7 1017.4 1017.2 0.0
21/09:30pm 23.1 23.4 18.0 73 3.2 E 13 17 7 9 1017.0 1016.8 0.0
21/09:00pm 23.4 24.2 18.1 72 3.3 E 11 13 6 7 1016.7 1016.5 0.0
21/08:30pm 23.8 24.2 18.2 71 3.5 E 13 17 7 9 1016.4 1016.2 0.0
21/08:00pm 24.2 23.9 18.2 69 3.8 E 17 22 9 12 1016.4 1016.2 0.0
21/07:30pm 24.4 24.1 18.3 69 3.8 E 17 22 9 12 1016.2 1016.0 0.0
21/07:00pm 24.7 24.0 18.2 67 4.1 E 19 24 10 13 1015.6 1015.4 0.0
21/06:30pm 25.2 24.3 18.2 65 4.4 E 20 26 11 14 1015.0 1014.8 0.0
21/06:00pm 26.1 24.8 18.2 61 5.0 E 22 28 12 15 1014.8 1014.6 0.0
21/05:30pm 26.8 25.6 18.4 60 5.4 E 22 30 12 16 1014.5 1014.3 0.0
21/05:00pm 26.9 25.2 18.2 59 5.5 E 24 32 13 17 1014.4 1014.2 0.0
21/04:30pm 27.7 26.5 18.4 57 5.9 ENE 22 30 12 16 1014.2 1014.0 0.0
21/04:00pm 28.0 26.4 18.4 56 6.1 ENE 24 33 13 18 1014.3 1014.1 0.0
21/03:30pm 28.9 27.5 18.9 54 6.5 E 24 33 13 18 1014.5 1014.3 0.0
21/03:00pm 28.7 27.3 18.8 55 6.4 E 24 35 13 19 1014.6 1014.4 0.0
21/02:30pm 28.7 27.8 18.2 53 6.7 E 20 28 11 15 1014.9 1014.7 0.0
21/02:00pm 29.1 27.7 17.9 50 7.1 ESE 22 30 12 16 1015.0 1014.8 0.0
21/01:30pm 28.4 27.2 17.6 52 6.8 ESE 20 32 11 17 1015.2 1015.0 0.0
21/01:00pm 29.1 28.2 18.2 51 7.0 ESE 20 28 11 15 1015.6 1015.4 0.0
21/12:30pm 29.3 29.0 19.6 56 6.3 E 20 30 11 16 1015.8 1015.6 0.0
21/12:00pm 28.7 27.7 19.6 58 5.9 E 24 35 13 19 1016.2 1016.0 0.0
21/11:30am 28.4 27.2 20.1 60 5.4 E 26 33 14 18 1016.6 1016.4 0.0
21/11:00am 28.4 27.6 19.3 57 5.9 E 22 32 12 17 1016.7 1016.5 0.0
21/10:30am 27.7 27.2 19.0 59 5.6 ESE 20 30 11 16 1016.9 1016.7 0.0
21/10:00am 27.6 27.0 19.7 62 5.1 E 22 32 12 17 1017.0 1016.8 0.0
21/09:30am 27.6 26.9 20.2 64 4.9 E 24 32 13 17 1016.9 1016.7 0.0
21/09:00am 25.4 25.6 20.2 73 3.4 E 19 24 10 13 1017.0 1016.8 0.2
21/08:30am 25.8 26.5 20.4 72 3.5 ENE 17 24 9 13 1016.9 1016.7 0.2
21/08:00am 26.1 26.7 20.2 70 3.8 ENE 17 24 9 13 1016.8 1016.6 0.2
21/07:30am 24.4 26.5 20.9 81 2.3 S 11 13 6 7 1016.7 1016.5 0.2
21/07:00am 24.2 26.9 21.3 84 1.9 S 9 11 5 6 1016.4 1016.2 0.2
21/06:30am 22.8 25.3 21.1 90 1.1 SSW 9 13 5 7 1015.9 1015.7 0.2
21/06:00am 22.5 24.5 20.8 90 1.1 S 11 15 6 8 1015.6 1015.4 0.2
21/05:30am 22.0 23.4 20.3 90 1.1 S 13 15 7 8 1015.1 1014.9 0.2
21/05:00am 21.5 22.8 19.2 87 1.5 S 11 15 6 8 1015.0 1014.8 0.2
21/04:30am 21.4 23.2 18.8 85 1.6 S 7 11 4 6 1014.6 1014.4 0.2
21/04:00am 22.0 25.3 19.2 84 1.8 CALM 0 0 0 0 1014.2 1014.0 0.2
21/03:30am 21.9 23.5 19.1 84 1.8 NE 9 13 5 7 1014.2 1014.0 0.2
21/03:00am 22.4 22.3 19.9 86 1.6 NE 20 24 11 13 1014.3 1014.1 0.2
21/02:30am 24.1 26.5 20.0 78 2.7 E 7 11 4 6 1014.1 1013.9 0.0
21/02:00am 24.1 26.4 19.8 77 2.8 ENE 7 9 4 5 1014.4 1014.2 0.0
21/01:30am 24.0 26.1 20.1 79 2.5 ESE 9 11 5 6 1014.6 1014.4 0.0
21/01:00am 24.1 26.1 20.0 78 2.7 E 9 11 5 6 1014.8 1014.6 0.0
21/12:30am 24.2 26.6 20.1 78 2.7 E 7 9 4 5 1015.0 1014.8 0.0
21/12:00am 23.9 25.7 19.6 77 2.8 E 9 13 5 7 1015.4 1015.2 0.0
 
Date/Time
EST
Temp
°C
App
Temp
°C
Dew
Point
Rel
Hum
%
Delta-T
°C
Wind Press
QNH
hPa
Press
MSL
hPa
Rain
since 9 am
mm
Dir
 
Spd
km/h
Gust
km/h
Spd
kts
Gust
kts
20/11:30pm 23.6 25.0 19.5 78 2.6 SE 11 15 6 8 1016.0 1015.8 0.0
20/11:00pm 24.0 25.4 19.5 76 2.9 ENE 11 17 6 9 1015.6 1015.4 0.0
20/10:30pm 23.9 25.3 19.6 77 2.8 E 11 15 6 8 1015.7 1015.5 0.0
20/10:00pm 24.2 25.3 19.7 76 2.9 E 13 17 7 9 1015.7 1015.5 0.0
20/09:30pm 24.4 25.5 19.7 75 3.0 E 13 17 7 9 1015.7 1015.5 0.0
20/09:00pm 24.4 24.7 19.5 74 3.1 E 17 20 9 11 1015.4 1015.2 0.0
20/08:30pm 24.8 25.0 19.4 72 3.5 ESE 17 20 9 11 1015.2 1015.0 0.0
20/08:00pm 24.8 25.1 19.6 73 3.3 ESE 17 20 9 11 1014.7 1014.5 0.0
20/07:30pm 25.0 25.3 19.6 72 3.5 E 17 22 9 12 1014.3 1014.1 0.0
20/07:00pm 25.4 25.8 19.8 71 3.6 E 17 22 9 12 1013.9 1013.7 0.0
20/06:30pm 26.1 25.9 19.7 68 4.1 E 20 28 11 15 1013.3 1013.1 0.0
20/06:00pm 26.8 25.4 19.7 65 4.6 E 26 32 14 17 1012.7 1012.5 0.0
20/05:30pm 27.6 26.9 19.4 61 5.3 E 22 32 12 17 1012.3 1012.1 0.0
20/05:00pm 28.4 27.4 19.6 59 5.7 E 24 32 13 17 1012.0 1011.8 0.0
20/04:30pm 28.5 27.5 19.7 59 5.7 ENE 24 32 13 17 1011.7 1011.5 0.0
20/04:00pm 28.8 27.4 19.7 58 5.9 ENE 26 32 14 17 1011.7 1011.5 0.0
20/03:30pm 29.4 29.2 20.5 58 5.9 ENE 22 32 12 17 1011.9 1011.7 0.0
20/03:00pm 29.5 28.9 19.8 56 6.4 E 22 32 12 17 1012.1 1011.9 0.0
20/02:30pm 29.8 29.0 19.2 53 6.9 E 22 30 12 16 1012.3 1012.1 0.0
20/02:00pm 29.6 29.1 19.9 56 6.4 E 22 32 12 17 1012.4 1012.2 0.0
20/01:30pm 29.7 29.1 19.7 55 6.6 E 22 32 12 17 1012.9 1012.7 0.0
20/01:00pm 29.8 29.1 19.5 54 6.7 E 22 32 12 17 1013.2 1013.0 0.0
20/12:30pm 29.7 29.1 19.7 55 6.6 E 22 30 12 16 1013.5 1013.3 0.0
20/12:00pm 29.7 29.0 20.3 57 6.2 E 24 32 13 17 1013.8 1013.6 0.0
20/11:30am 29.2 28.1 18.6 52 6.8 ESE 22 32 12 17 1014.3 1014.1 0.0
20/11:00am 29.9 30.1 20.5 57 6.2 E 20 37 11 20 1014.6 1014.4 0.0
20/10:30am 28.6 27.9 19.5 58 5.9 E 22 30 12 16 1014.8 1014.6 0.0
20/10:00am 28.6 28.4 19.8 59 5.8 ESE 20 30 11 16 1015.0 1014.8 0.0
20/09:30am 28.5 28.5 20.2 60 5.5 E 20 30 11 16 1014.9 1014.7 0.0
20/09:00am 27.8 27.4 20.1 63 5.0 ESE 22 28 12 15 1014.8 1014.6 0.0
20/08:30am 27.7 27.2 20.8 66 4.6 ESE 24 35 13 19 1014.8 1014.6 0.0
20/08:00am 27.0 28.3 22.6 77 3.0 SE 20 26 11 14 1014.8 1014.6 0.0
20/07:30am 24.9 25.9 21.8 83 2.1 SE 19 24 10 13 1014.6 1014.4 0.0
20/07:13am 24.2 26.5 22.1 88 1.4 SSE 13 22 7 12 1014.6 1014.4 0.0
20/07:00am 23.3 26.0 22.1 93 0.8 SSE 11 17 6 9 1014.3 1014.1 0.0
20/06:38am 22.6 24.9 22.1 97 0.3 SSE 13 19 7 10 1014.2 1014.0 0.0
20/06:37am 22.5 24.8 22.0 97 0.3 SSE 13 20 7 11 1014.2 1014.0 0.0
20/06:30am 22.6 25.1 22.4 99 0.1 SSE 13 20 7 11 1014.1 1013.9 0.0
20/06:27am 22.5 25.3 22.3 99 0.1 SSE 11 17 6 9 1014.0 1013.8 0.0
20/06:11am 21.8 24.2 21.6 99 0.1 SSE 11 15 6 8 1013.7 1013.5 0.0
20/06:00am 21.4 23.6 21.2 99 0.1 SSE 11 17 6 9 1013.5 1013.3 0.0
20/05:34am 20.6 22.4 20.3 98 0.2 S 11 17 6 9 1013.2 1013.0 0.0
20/05:33am 20.7 22.5 20.4 98 0.2 S 11 17 6 9 1013.2 1013.0 0.0
20/05:30am 20.7 22.9 20.4 98 0.2 S 9 15 5 8 1013.0 1012.8 0.0
20/05:21am 20.6 23.1 20.3 98 0.2 SSW 7 11 4 6 1012.9 1012.7 0.0
20/05:00am 20.8 23.4 20.5 98 0.2 SE 7 9 4 5 1012.5 1012.3 0.0
20/04:45am 20.7 23.3 20.5 99 0.1 SE 7 11 4 6 1012.3 1012.1 0.0
20/04:44am 20.8 23.0 20.5 98 0.2 SE 9 11 5 6 1012.3 1012.1 0.0
20/04:30am 20.7 22.9 20.4 98 0.2 SSE 9 11 5 6 1012.1 1011.9 0.0
20/04:14am 20.7 22.9 20.4 98 0.2 SSE 9 15 5 8 1012.0 1011.8 0.0
20/04:00am 20.7 22.9 20.4 98 0.2 SSE 9 13 5 7 1011.8 1011.6 0.0
20/03:30am 20.6 22.3 20.1 97 0.3 SSE 11 15 6 8 1011.6 1011.4 0.0
20/03:19am 20.5 22.0 19.8 96 0.4 SE 11 15 6 8 1011.5 1011.3 0.0
20/03:17am 20.7 22.3 20.0 96 0.4 SE 11 15 6 8 1011.5 1011.3 0.0
20/03:13am 20.8 22.5 20.1 96 0.4 SE 11 15 6 8 1011.5 1011.3 0.0
20/03:00am 20.9 23.0 20.2 96 0.4 SE 9 9 5 5 1011.5 1011.3 0.0
20/02:30am 21.4 25.4 20.6 95 0.5 CALM 0 0 0 0 1011.3 1011.1 0.0
20/02:00am 21.6 25.6 20.6 94 0.6 CALM 0 0 0 0 1011.2 1011.0 0.0
20/01:30am 22.1 25.7 21.3 95 0.5 WNW 4 7 2 4 1011.1 1010.9 0.0
20/01:00am 21.9 24.2 20.7 93 0.8 NW 9 9 5 5 1011.2 1011.0 0.0
20/12:30am 22.3 24.8 21.1 93 0.8 NW 9 11 5 6 1011.5 1011.3 0.0
20/12:00am 22.6 25.3 21.4 93 0.8 NW 9 13 5 7 1011.7 1011.5 0.0
 
Date/Time
EST
Temp
°C
App
Temp
°C
Dew
Point
Rel
Hum
%
Delta-T
°C
Wind Press
QNH
hPa
Press
MSL
hPa
Rain
since 9 am
mm
Dir
 
Spd
km/h
Gust
km/h
Spd
kts
Gust
kts
19/11:30pm 22.9 25.2 21.4 91 1.0 NW 11 13 6 7 1012.2 1012.0 0.0
19/11:00pm 23.6 26.1 21.7 89 1.3 NNW 11 13 6 7 1012.8 1012.6 0.0
19/10:30pm 23.8 26.5 22.1 90 1.1 NNW 11 15 6 8 1013.0 1012.8 0.0
19/10:00pm 23.7 26.2 21.8 89 1.3 NNW 11 13 6 7 1012.9 1012.7 0.0
19/09:30pm 24.5 27.0 21.8 85 1.8 NNE 11 13 6 7 1012.8 1012.6 0.0
19/09:00pm 24.0 26.8 21.5 86 1.7 NNW 9 11 5 6 1012.4 1012.2 0.0
19/08:30pm 24.7 27.5 21.6 83 2.1 N 9 11 5 6 1012.2 1012.0 0.0
19/08:00pm 25.0 27.5 21.7 82 2.2 NNE 11 13 6 7 1012.0 1011.8 0.0
19/07:30pm 25.5 27.7 21.2 77 2.8 N 11 15 6 8 1011.8 1011.6 0.0
19/07:00pm 25.5 27.4 21.4 78 2.7 N 13 17 7 9 1011.5 1011.3 0.0
19/06:30pm 26.4 27.7 20.9 72 3.6 N 15 19 8 10 1011.2 1011.0 0.0
19/06:00pm 28.0 29.3 20.8 65 4.8 N 15 19 8 10 1011.0 1010.8 0.0
19/05:30pm 30.3 31.8 15.6 41 9.1 SE 2 6 1 3 1010.6 1010.4 0.0
19/05:00pm 31.0 33.1 16.2 41 9.3 CALM 0 4 0 2 1010.3 1010.1 0.0
19/04:30pm 30.6 30.9 17.0 44 8.6 SSW 11 19 6 10 1010.1 1009.9 0.0
19/04:00pm 30.4 31.0 17.8 46 8.1 WSW 11 15 6 8 1010.0 1009.8 0.0

Other Formats:

Comma delimited format used in spreadsheet applications
http://www.bom.gov.au/fwo/IDQ60801/IDQ60801.94387.axf

JavaScript Object Notation format (JSON) in row-major order
http://www.bom.gov.au/fwo/IDQ60801/IDQ60801.94387.json